Хопкинсвилл

США     36°51′55″N   87°29′19″W
темп.,
°C
ветер,
м/с
пор.,
м/с
влажн.,
%
обл.,
%
осадки,
мм/ч
давл.,
гПа
погр.,
м
15 мая, сб
сб1501:00+10вюв33760 0.0 102545
04:00+9юв347610 0.0 102555
07:00+10юв367771 0.0 1026114
10:00+18ююв355926 0.0 1025451
13:00+22ююв3450100 0.0 10231831
16:00+21юв3563100 0.0 1021386
19:00+16св4679100 0.1 1021115
22:00+13в51191100 1.3 1022272
16 мая, вс
вс1601:00+13вюв31091100 1.3 1021264
04:00+14ююв2695100 0.7 1021175
07:00+14ююв359432 1.5 1022151
10:00+18ююз468298 0.6 1022461
13:00+21ююз367772 1.3 1021917
16:00+23юз457119 1.3 10191052
19:00+20ююз358690 4.2 1019113
22:00+17ю3491100 0.3 101954
17 мая, пн
пн1701:00+16ююз3793100 0.3 1019128
04:00+15ю3490100 0.0 101849
07:00+16ююв3690100 0.0 1019154
10:00+21ююз467559 0.1 1020484
13:00+25ю695667 1.7 10181773
16:00+25ююв686296 0.1 10171746
19:00+21ююв51279100 0.7 1017389
22:00+18ююз3783100 0.1 1019165
18 мая, вт
вт1801:00+17вюв31091100 0.9 1019233
04:00+17вюв3793100 0.5 1019174
07:00+16юв4993100 0.8 1020238
10:00+21ююв61078100 0.0 1020653
13:00+25ююв71061100 0.0 10201873
16:00+24ююв61069100 0.2 1018733
19:00+23ююв5127655 0.4 1019457
22:00+19ююв4138531 0.0 1020288
19 мая, ср
ср1901:00+19ююв6167798 0.0 1019477
04:00+19ююв5157366 0.0 1020503
07:00+18ююв5158137 0.0 1022566
10:00+23ю71169100 0.0 1023994
13:00+25ююв7961100 0.0 10231444
16:00+26ююв686639 0.4 10211303
19:00+22ююв5127641 0.6 1021452
22:00+18юв3118633 0.0 1023229